This is the latest recevied weather packets stored in our database for station/object AC1IX. If no packets are shown the sender has not sent any weather packets the latest 10 day(s).
| Time | Temp. | Humidity | Pressure | Rain* | Wind** | Luminosity | Snow |
|---|---|---|---|---|---|---|---|
| 1777854237 | 7.78° C | 46% | 1010 hPa | 0 mm | - | 0 W/m² | - |
| 1777853935 | 7.78° C | 46% | 1010 hPa | 0 mm | - | 0 W/m² | - |
| 1777853632 | 8.33° C | 46% | 1010.1 hPa | 0 mm | - | 0 W/m² | - |
| 1777853329 | 8.33° C | 48% | 1009.6 hPa | 0 mm | - | 0 W/m² | - |
| 1777853026 | 8.33° C | 47% | 1009.7 hPa | 0 mm | - | 0 W/m² | - |
| 1777852724 | 8.33° C | 45% | 1009.9 hPa | 0 mm | - | 0 W/m² | - |
| 1777852421 | 8.33° C | 44% | 1009.6 hPa | 0 mm | - | 1 W/m² | - |
| 1777852118 | 8.33° C | 46% | 1009.4 hPa | 0 mm | - | 3 W/m² | - |
| 1777851816 | 8.33° C | 44% | 1009.3 hPa | 0 mm | - | 5 W/m² | - |
| 1777851513 | 8.89° C | 46% | 1009.3 hPa | 0 mm | - | 6 W/m² | - |
| 1777851209 | 8.89° C | 43% | 1009.2 hPa | 0 mm | - | 8 W/m² | - |
| 1777850906 | 9.44° C | 41% | 1009.4 hPa | 0 mm | - | 11 W/m² | - |
| 1777850603 | 9.44° C | 41% | 1009.1 hPa | 0 mm | - | 13 W/m² | - |
| 1777850301 | 9.44° C | 42% | 1009.4 hPa | 0 mm | - | 15 W/m² | - |
| 1777849998 | 9.44° C | 42% | 1009 hPa | 0 mm | - | 17 W/m² | - |
| 1777849694 | 10° C | 43% | 1009.2 hPa | 0 mm | - | 18 W/m² | - |
| 1777849391 | 10° C | 43% | 1009.2 hPa | 0 mm | - | 21 W/m² | - |
| 1777849089 | 10° C | 42% | 1009.1 hPa | 0 mm | - | 23 W/m² | - |
| 1777848784 | 10° C | 44% | 1009.2 hPa | 0 mm | - | 23 W/m² | - |
| 1777848481 | 10.56° C | 43% | 1008.9 hPa | 0 mm | - | 26 W/m² | - |
| 1777848178 | 10.56° C | 42% | 1009 hPa | 0 mm | - | 33 W/m² | - |
| 1777847876 | 10.56° C | 42% | 1009 hPa | 0 mm | - | 25 W/m² | - |
| 1777847573 | 10.56° C | 40% | 1009 hPa | 0 mm | - | 43 W/m² | - |
| 1777847269 | 10.56° C | 41% | 1009.2 hPa | 0 mm | - | 62 W/m² | - |
| 1777846967 | 11.11° C | 42% | 1008.9 hPa | 0 mm | - | 29 W/m² | - |
* Rain latest hour (hover to see other rain measurements)
** Current wind speed in m/s (hover to see current wind gust speed)